• In Hungary
  • List of Countries
  • For 7 days
  • Water Temperature
  • Satellite Maps
  • Weather Map
  • News
  • Weather Widgets
  • user-avatar
    Login

    Hourly Weather San José de Galipán

    Today, 22 February, Thursday

    Time Temperature Precipitation Wind Pressure Humidity
    00:00 +15°C° 0.2 mm 4 mps 659 mmHg 94%
    01:00 +15°C° 0.2 mm 4 mps 658 mmHg 94%
    02:00 +15°C° 0.2 mm 4 mps 658 mmHg 94%
    03:00 +15°C° 0.2 mm 4 mps 658 mmHg 94%
    04:00 +15°C° 0.2 mm 4 mps 658 mmHg 94%
    05:00 +15°C° 0.2 mm 4 mps 658 mmHg 94%
    06:00 +15°C° 0.2 mm 4 mps 658 mmHg 94%
    07:00 +15°C° 0.2 mm 4 mps 658 mmHg 93%
    08:00 +15°C° 0.2 mm 4 mps 659 mmHg 92%
    09:00 +17°C° 0.1 mm 3 mps 659 mmHg 89%
    10:00 +18°C° 0.1 mm 3 mps 660 mmHg 86%
    11:00 +18°C° 0.1 mm 3 mps 660 mmHg 83%
    12:00 +19°C° 0.1 mm 3 mps 660 mmHg 81%
    13:00 +20°C° 0.1 mm 4 mps 659 mmHg 79%
    14:00 +20°C° 0.1 mm 4 mps 659 mmHg 76%
    15:00 +20°C° 0.1 mm 4 mps 658 mmHg 79%
    16:00 +19°C° 0.1 mm 4 mps 658 mmHg 82%
    17:00 +19°C° 0.1 mm 4 mps 657 mmHg 85%
    18:00 +18°C° 0.1 mm 4 mps 657 mmHg 87%
    19:00 +17°C° 0.1 mm 4 mps 657 mmHg 90%
    20:00 +17°C° 0.1 mm 4 mps 657 mmHg 93%
    21:00 +17°C° 0.2 mm 4 mps 658 mmHg 93%
    22:00 +15°C° 0.2 mm 4 mps 658 mmHg 94%
    23:00 +15°C° 0.2 mm 4 mps 658 mmHg 94%

    Tomorrow, 23 February, Friday

    Time Temperature Precipitation Wind Pressure Humidity
    00:00 +15°C° 0.4 mm 4 mps 658 mmHg 94%
    01:00 +15°C° 0.4 mm 4 mps 658 mmHg 94%
    02:00 +15°C° 0.4 mm 4 mps 657 mmHg 94%
    03:00 +15°C° 0.3 mm 4 mps 657 mmHg 94%
    04:00 +15°C° 0.3 mm 4 mps 657 mmHg 94%
    05:00 +15°C° 0.3 mm 4 mps 657 mmHg 95%
    06:00 +15°C° 0.2 mm 4 mps 657 mmHg 94%
    07:00 +16°C° 0.2 mm 3 mps 658 mmHg 93%
    08:00 +16°C° 0.2 mm 3 mps 658 mmHg 92%
    09:00 +17°C° 0.1 mm 3 mps 659 mmHg 89%
    10:00 +18°C° 0.1 mm 3 mps 659 mmHg 85%
    11:00 +18°C° 0.1 mm 3 mps 659 mmHg 82%
    12:00 +19°C° 0.2 mm 3 mps 659 mmHg 79%
    13:00 +20°C° 0.2 mm 3 mps 658 mmHg 77%
    14:00 +21°C° 0.2 mm 3 mps 658 mmHg 74%
    15:00 +20°C° 0.2 mm 3 mps 657 mmHg 76%
    16:00 +20°C° 0.2 mm 3 mps 657 mmHg 78%
    17:00 +19°C° 0.2 mm 3 mps 656 mmHg 80%
    18:00 +18°C° 0.1 mm 3 mps 656 mmHg 84%
    19:00 +18°C° 0.1 mm 3 mps 656 mmHg 88%
    20:00 +17°C° 0.1 mm 3 mps 657 mmHg 92%
    21:00 +17°C° 0.1 mm 3 mps 657 mmHg 93%
    22:00 +16°C° 0.1 mm 3 mps 657 mmHg 93%
    23:00 +16°C° 0.1 mm 3 mps 657 mmHg 93%

    Day after tomorrow, 24 February, Saturday

    Time Temperature Precipitation Wind Pressure Humidity
    00:00 +16°C° 0.2 mm 3 mps 657 mmHg 94%
    01:00 +16°C° 0.2 mm 3 mps 657 mmHg 94%
    02:00 +16°C° 0.2 mm 3 mps 656 mmHg 94%
    03:00 +16°C° 0.1 mm 3 mps 656 mmHg 94%
    04:00 +16°C° 0.1 mm 3 mps 656 mmHg 95%
    05:00 +16°C° 0.1 mm 3 mps 656 mmHg 95%
    06:00 +16°C° 0.1 mm 3 mps 656 mmHg 94%
    07:00 +16°C° 0.1 mm 3 mps 657 mmHg 93%
    08:00 +16°C° 0.1 mm 3 mps 657 mmHg 92%
    09:00 +17°C° 0.1 mm 3 mps 657 mmHg 88%
    10:00 +18°C° 0.1 mm 3 mps 658 mmHg 85%
    11:00 +19°C° 0.1 mm 3 mps 658 mmHg 82%
    12:00 +20°C° 0.1 mm 3 mps 658 mmHg 76%
    13:00 +21°C° 0.1 mm 3 mps 657 mmHg 71%
    14:00 +22°C° 0.1 mm 3 mps 657 mmHg 66%
    15:00 +21°C° 0.2 mm 3 mps 656 mmHg 70%
    16:00 +21°C° 0.2 mm 3 mps 656 mmHg 75%
    17:00 +20°C° 0.2 mm 3 mps 656 mmHg 79%
    18:00 +19°C° 0.1 mm 3 mps 656 mmHg 83%
    19:00 +18°C° 0.1 mm 3 mps 656 mmHg 88%
    20:00 +17°C° 0.1 mm 3 mps 657 mmHg 92%
    21:00 +17°C° 0.2 mm 3 mps 657 mmHg 93%
    22:00 +17°C° 0.2 mm 3 mps 657 mmHg 93%
    23:00 +17°C° 0.2 mm 3 mps 657 mmHg 94%

    25 February, Sunday

    Time Temperature Precipitation Wind Pressure Humidity
    00:00 +17°C° 0.1 mm 3 mps 657 mmHg 94%
    01:00 +16°C° 0.1 mm 3 mps 657 mmHg 94%
    02:00 +16°C° 0.1 mm 3 mps 656 mmHg 94%
    03:00 +16°C° 0.1 mm 3 mps 656 mmHg 94%
    04:00 +16°C° 0.1 mm 3 mps 656 mmHg 95%
    05:00 +16°C° 0.1 mm 3 mps 656 mmHg 95%
    06:00 +16°C° 0.1 mm 3 mps 657 mmHg 94%
    07:00 +17°C° 0.1 mm 3 mps 657 mmHg 93%
    08:00 +17°C° 0.1 mm 3 mps 658 mmHg 92%
    09:00 +18°C° 0.1 mm 3 mps 658 mmHg 87%
    10:00 +19°C° 0.1 mm 3 mps 658 mmHg 82%
    11:00 +20°C° 0.1 mm 3 mps 659 mmHg 76%
    12:00 +21°C° 0.4 mm 3 mps 658 mmHg 75%
    13:00 +21°C° 0.4 mm 3 mps 658 mmHg 74%
    14:00 +22°C° 0.4 mm 4 mps 657 mmHg 72%
    15:00 +21°C° 0.3 mm 3 mps 657 mmHg 74%
    16:00 +21°C° 0.3 mm 3 mps 656 mmHg 77%
    17:00 +20°C° 0.3 mm 3 mps 656 mmHg 79%
    18:00 +19°C° 0.1 mm 3 mps 656 mmHg 83%
    19:00 +18°C° 0.1 mm 3 mps 656 mmHg 88%
    20:00 +17°C° 0.1 mm 3 mps 657 mmHg 92%
    21:00 +17°C° 0.1 mm 3 mps 657 mmHg 93%
    22:00 +17°C° 0.1 mm 3 mps 657 mmHg 93%
    23:00 +17°C° 0.1 mm 3 mps 658 mmHg 94%

    26 February, Monday

    Time Temperature Precipitation Wind Pressure Humidity
    00:00 +17°C° 0.1 mm 3 mps 657 mmHg 94%
    01:00 +17°C° 0.1 mm 3 mps 657 mmHg 94%
    02:00 +17°C° 0.1 mm 3 mps 657 mmHg 94%
    03:00 +17°C° 0.1 mm 3 mps 657 mmHg 94%
    04:00 +17°C° 0.1 mm 3 mps 657 mmHg 94%
    05:00 +17°C° 0.1 mm 3 mps 657 mmHg 95%
    06:00 +17°C° 0.1 mm 3 mps 657 mmHg 94%
    07:00 +17°C° 0.1 mm 3 mps 658 mmHg 93%
    08:00 +17°C° 0.1 mm 3 mps 658 mmHg 92%
    09:00 +18°C° 0 mm 3 mps 659 mmHg 84%
    10:00 +20°C° 0 mm 3 mps 659 mmHg 76%
    11:00 +21°C° 0 mm 3 mps 659 mmHg 68%
    12:00 +22°C° 0 mm 3 mps 659 mmHg 66%
    13:00 +24°C° 0 mm 3 mps 658 mmHg 63%
    14:00 +25°C° 0 mm 3 mps 658 mmHg 60%
    15:00 +24°C° 0.1 mm 3 mps 657 mmHg 64%
    16:00 +22°C° 0.1 mm 3 mps 657 mmHg 69%
    17:00 +21°C° 0.1 mm 3 mps 656 mmHg 73%
    18:00 +20°C° 0 mm 3 mps 656 mmHg 79%
    19:00 +19°C° 0 mm 3 mps 656 mmHg 85%
    20:00 +18°C° 0 mm 3 mps 657 mmHg 91%
    21:00 +17°C° 0.2 mm 3 mps 657 mmHg 92%
    22:00 +17°C° 0.2 mm 3 mps 657 mmHg 93%
    23:00 +17°C° 0.2 mm 3 mps 657 mmHg 94%

    27 February, Tuesday

    Time Temperature Precipitation Wind Pressure Humidity
    00:00 +17°C° 0.2 mm 3 mps 657 mmHg 94%
    01:00 +17°C° 0.2 mm 3 mps 657 mmHg 94%
    02:00 +17°C° 0.2 mm 3 mps 656 mmHg 95%
    03:00 +17°C° 0.3 mm 3 mps 656 mmHg 95%
    04:00 +17°C° 0.3 mm 3 mps 656 mmHg 95%
    05:00 +17°C° 0.3 mm 3 mps 656 mmHg 95%
    06:00 +17°C° 0.1 mm 3 mps 656 mmHg 94%
    07:00 +17°C° 0.1 mm 3 mps 657 mmHg 93%
    08:00 +17°C° 0.1 mm 3 mps 657 mmHg 92%
    09:00 +18°C° 0 mm 3 mps 658 mmHg 87%
    10:00 +19°C° 0 mm 3 mps 658 mmHg 83%
    11:00 +20°C° 0 mm 3 mps 658 mmHg 78%
    12:00 +21°C° 0.1 mm 3 mps 658 mmHg 73%
    13:00 +22°C° 0.1 mm 3 mps 657 mmHg 69%
    14:00 +24°C° 0.1 mm 3 mps 657 mmHg 65%
    15:00 +22°C° 0 mm 3 mps 656 mmHg 69%
    16:00 +21°C° 0 mm 3 mps 656 mmHg 73%
    17:00 +21°C° 0 mm 3 mps 655 mmHg 77%
    18:00 +20°C° 0.1 mm 3 mps 655 mmHg 82%
    19:00 +19°C° 0.1 mm 3 mps 655 mmHg 87%
    20:00 +18°C° 0.1 mm 3 mps 655 mmHg 92%
    21:00 +17°C° 0.1 mm 3 mps 656 mmHg 92%
    22:00 +17°C° 0.1 mm 3 mps 656 mmHg 93%
    23:00 +17°C° 0.1 mm 3 mps 656 mmHg 93%
    Show more